SCP
0 0 0 0 0 0 0 0 0 0 0 0 0 0 0 0 0 0 0 0 0 0 0 0 0 0 0 0 0 0 0 0 0 0 0 0 0 0 0 0 0 0 0 0 0 0 0
0 0 0 0 0 0 0 0 0 0 0 0 0 0 0 0 0 0 0 0 0 0 0 0 0 0 0 0 0 0 0 0 0 0 0 0 0 0 0 0 0 0 0 0 0 0 0
0 0 0 0 0 0 0 0 0 0 0 0 0 0 0 0 0 0 0 0 0 0 0 0 0 0 0 0 0 0 0 0 0 0 0 0 0 0 0 0 0 0 0 0 0 0 0
0 0 0 0 0 0 0 0 0 0 0 0 0 0 0 0 0 0 0 0 0 0 0 0 0 0 0 0 0 0 0 0 0 0 0 0 0 0 0 0 0 0 0 0 0 0 0
0 0 0 0 0 0 0 0 0 0 0 0 0 0 0 0 0 0 0 0 0 0 0 -0 0 0 0 0 0 0 -0 0 0 -0 0 0 -0 0 0 0 0 0 0 0 0 0 0
0 0 0 0 0 0 0 0 0 0 0 0 0 0 0 0 0 0 0 0 -0 0 0 -0 0 0 0 0 -0 0 0 0 0 0 0 0 0 0 0 0 0 0 0 0 0 0 0
0 0 0 0 0 0 0 0 0 0 0 0 0 0 0 0 0 0 0 0 -0 0 0 0 0 0 -0 0 0 0 0 0 0 0 0 0 0 0 0 0 0 0 0 0 0 0 0
0 0 0 0 0 0 0 0 0 0 0 0 0 0 0 0 0 0 0 0 0 0 0 0 0 -0 -0 0 0 0 0 0 0 0 0 0 0 -0 0 0 0 0 0 0 0 0 0
0 0 0 0 0 0 0 0 0 0 0 0 0 0 0 0 0 0 0 0 0 0 0 0 0 0 0 0 0 -0 0 0 0 -0 -0 -0 -0 -0 -0 0 0 0 0 0 0 0 0
0 0 0 0 0 0 0 0 0 0 0 0 0 0 0 0 0 0 0 0 0 0 0 0 0 0 0 -0 -0 0 0 0 0 0 -0 0 -0 0 -0 0 -0 0 -0 0 0 0 0
0 0 0 0 0 0 0 0 0 0 0 0 0 0 0 0 0 0 0 0 0 0 0 0 0 0 -0 0 -0 0 0 0 0 0 0 -0 0 0 0 0 0 -0 0 0 0 0 0
0 0 0 0 0 0 0 0 0 0 0 0 0 0 0 0 0 0 0 0 0 0 0 0 0 -0 -0 -0 0 0 0 0 0 0 0 -0 -0 -0 -0 0 0 0 -0 0 0 0 0
0 0 0 0 0 0 0 0 0 0 0 0 0 0 0 0 0 0 0 0 0 0 0 0 -0 -0 -0 -0 -0 0 0 0 -0 0 -0 -0 -0 0 -0 -0 -0 0 0 0 0 0 0
0 0 0 0 0 0 0 0 0 0 0 0 0 0 0 0 0 0 0 0 0 0 0 0 -0 -0 0 -0 -0 -0 -0 0 -0 -0 -0 0 -0 0 0 0 0 0 0 0 0 0 0
0 0 0 0 0 0 0 0 0 0 0 0 0 0 0 0 0 0 0 0 0 0 0 0 -0 -0 0 -0 0 0 0 -0 -0 -0 -0 -0 -0 -0 -0 -0 -0 0 0 -0 0 0 0
0 0 0 0 0 0 0 0 0 0 0 0 0 0 0 0 0 0 0 0 0 0 0 0 -0 0 -0 -0 0 0 0 -0 -0 -0 -0 -0 -0 -0 0 -0 0 0 0 0 0 0 0
0 0 0 0 0 0 0 0 0 0 0 0 0 0 0 0 0 0 0 0 0 0 0 0 -0 -0 0 0 0 0 0 0 0 -0 -0 -0 -0 0 0 -0 -0 0 0 0 0 0 0
0 0 0 0 0 0 0 0 0 0 0 0 0 0 0 0 0 0 0 0 0 0 0 0 -0 -0 0 0 0 0 0 0 0 -0 -0 -0 -0 0 -0 -0 0 -0 -0 0 0 0 -0
0 0 0 0 0 0 0 0 0 0 0 0 0 0 0 0 0 0 0 0 0 0 0 0 0 0 0 0 0 0 0 0 -0 -0 -0 -0 0 0 -0 0 0 -0 -0 0 -0 0 -0
0 0 0 0 0 0 0 0 0 0 0 0 0 0 0 0 0 0 0 0 0 0 0 0 0 0 0 0 0 0 0 0 0 -0 -0 -0 -0 -0 0 0 0 -0 -0 -0 -0 0 0
0 0 0 0 0 0 0 0 0 0 0 0 0 0 0 0 0 0 0 0 0 0 0 0 0 0 0 0 0 0 0 -0 0 0 0 -0 -0 0 0 0 -0 0 -0 -0 -0 0 0
0 0 0 0 0 0 0 0 0 0 0 0 0 0 0 0 0 0 0 0 0 0 0 0 0 -0 0 0 0 0 0 -0 0 0 0 0 -0 -0 0 0 0 0 -0 -0 -0 0 0
0 0 0 0 0 0 0 0 0 0 0 0 0 0 0 0 0 0 0 0 0 -0 0 0 -0 -0 -0 -0 0 0 0 0 0 -0 -0 -0 -0 -0 0 0 -0 0 -0 -0 0 0 0
0 0 0 0 0 0 0 0 0 0 0 0 0 0 0 0 0 0 0 0 -0 0 0 -0 -0 -0 0 -0 -0 0 0 0 0 0 -0 -0 -0 0 -0 0 -0 0 -0 0 0 0 -0
0 0 0 0 0 0 0 0 0 0 0 0 0 0 0 0 0 0 0 0 0 0 0 0 0 0 0 -0 0 0 0 0 0 0 -0 0 -0 0 -0 0 -0 0 0 -0 0 0 0
0 0 0 0 0 0 0 0 0 0 0 0 0 0 0 0 0 0 0 0 0 -0 -0 0 0 0 0 0 0 0 0 0 0 0 0 -0 -0 -0 0 0 0 0 -0 0 -0 -0 -0
0 0 0 0 0 0 0 0 0 0 0 0 0 0 0 0 0 0 0 0 0 0 0 0 0 0 0 0 0 0 0 0 0 0 0 -0 -0 -0 -0 0 -0 0 -0 -0 -0 0 -0
0 0 0 0 0 0 0 0 0 0 0 0 0 0 0 0 0 0 0 0 0 0 0 0 0 0 0 0 0 0 0 0 0 0 0 -0 -0 0 -0 0 0 0 -0 0 -0 -0 0
0 0 0 0 0 0 0 0 0 0 0 0 0 0 0 0 0 0 0 0 0 0 0 0 0 0 0 0 0 0 0 0 0 0 0 0 0 -0 -0 -0 0 -0 -0 -0 -0 -0 -0
Wind_Speed_500mb
36 38 36 36 43 42 43 43 44 44 43 48 52 53 54 53 53 55 57 60 61 62 60 61 64 63 58 28 49 54 32 29 39 40 35 30 33 39 46 43 53 46 59 69 61 54 63
34 36 36 38 35 42 41 45 48 53 50 48 50 52 55 55 55 56 60 62 63 64 65 68 67 46 38 48 45 27 41 49 52 42 31 15 19 28 39 36 39 46 52 57 66 68 64
38 40 40 42 43 43 42 47 41 48 52 52 54 52 61 56 55 59 61 63 66 67 65 69 38 42 39 63 45 47 33 30 26 19 18 20 22 23 21 36 62 64 53 53 45 51 36
40 41 44 45 49 47 50 40 44 49 47 49 52 55 58 62 57 59 63 67 71 68 49 34 60 45 34 49 17 19 11 25 28 39 47 43 32 36 43 38 46 30 29 53 59 54 58
38 39 39 38 44 51 52 50 50 53 49 51 53 55 59 60 62 63 67 72 75 51 34 57 39 9 28 13 11 25 49 42 40 48 40 35 39 50 41 32 30 37 46 52 51 42 40
35 40 35 38 40 47 50 55 54 61 55 52 52 52 55 60 63 67 69 79 56 38 10 42 7 24 17 26 49 47 19 31 32 36 36 25 32 33 30 27 31 43 49 53 59 50 41
39 40 44 46 40 42 47 52 59 50 54 51 58 56 57 60 62 66 74 73 42 9 57 30 65 45 63 38 47 43 34 38 26 18 25 25 20 29 35 42 49 50 53 60 47 52 58
38 41 37 41 46 49 48 53 61 55 55 59 58 58 58 60 63 53 63 26 25 31 54 73 40 24 24 20 23 43 44 21 21 35 32 23 33 50 36 32 39 43 50 57 60 58 47
42 40 45 40 44 47 49 50 58 53 60 54 59 61 58 61 63 55 45 28 38 39 18 42 23 24 11 23 40 90 37 41 33 46 39 40 57 38 39 43 43 40 41 46 57 56 49
43 44 47 45 44 51 52 56 55 58 59 57 59 60 61 62 45 60 22 37 44 37 8 10 20 6 14 66 28 47 43 17 11 28 34 34 48 45 48 49 45 45 53 44 45 45 40
43 43 44 45 47 47 50 50 44 54 63 59 64 59 57 55 62 40 41 40 51 8 10 19 14 25 62 40 66 21 23 25 41 45 24 40 29 33 34 44 36 39 38 40 42 39 41
45 47 46 45 44 49 51 55 50 52 55 60 58 56 59 65 39 35 35 45 22 4 9 21 18 55 56 58 21 36 59 24 38 25 31 48 49 28 45 44 40 31 22 31 26 25 29
42 49 52 44 47 47 51 52 46 48 57 59 54 52 61 35 31 34 41 37 4 5 20 20 50 53 56 42 31 23 35 23 10 15 20 27 22 16 30 26 24 25 20 11 14 16 26
46 47 47 44 42 48 52 52 45 53 53 56 52 56 37 25 34 32 45 4 6 3 11 35 37 48 18 40 24 33 37 20 10 21 20 26 29 2 4 13 14 22 29 17 18 22 28
53 45 53 48 44 49 51 50 47 51 56 50 54 53 16 23 27 28 18 5 6 5 18 30 39 13 9 33 25 27 36 10 12 20 18 18 28 41 39 32 28 5 26 38 19 4 15
52 50 54 54 44 48 51 47 49 48 52 51 56 45 8 21 35 24 3 10 6 15 24 20 14 5 23 29 27 38 16 8 27 16 23 14 28 20 10 23 6 18 2 8 10 9 24
52 49 49 48 49 44 47 43 47 45 52 50 46 21 10 30 27 8 5 8 15 23 29 7 14 16 19 27 28 28 17 34 2 28 27 27 11 24 21 14 23 10 10 12 9 15 23
52 49 50 44 48 47 44 42 46 44 44 44 22 10 21 27 5 4 4 7 23 21 19 13 12 18 19 27 25 20 18 27 47 41 29 13 12 17 40 29 17 27 11 24 10 14 9
48 47 48 47 46 44 44 45 43 39 39 40 18 12 11 18 5 9 8 10 13 11 18 5 9 10 11 16 19 17 27 19 60 17 21 12 6 22 21 2 3 16 31 23 20 13 26
48 49 47 46 44 46 45 45 39 37 30 34 8 5 8 6 3 5 15 13 9 18 16 14 18 26 13 21 22 28 46 25 34 54 57 25 4 12 20 35 32 26 36 24 16 11 17
48 51 49 50 46 46 50 45 36 34 26 29 7 7 8 6 7 13 15 10 21 10 10 11 9 16 20 18 40 26 33 53 33 33 10 7 11 16 22 31 9 32 40 33 28 15 12
50 50 49 50 48 48 51 48 35 34 26 27 11 9 10 14 18 9 8 8 16 14 8 20 19 33 28 32 37 56 50 50 27 9 1 12 10 10 24 13 11 25 33 36 30 26 18
49 50 49 48 48 50 50 54 37 32 21 25 24 29 18 11 5 4 7 9 18 34 24 28 37 38 37 37 46 72 76 69 38 35 11 5 5 8 8 11 12 6 19 23 14 28 13
54 53 54 52 52 52 57 59 48 37 29 36 41 37 15 9 7 12 22 36 37 34 35 64 53 25 26 74 85 40 24 21 16 12 13 4 4 4 11 15 7 6 13 10 16 20 22
62 60 59 60 59 58 61 58 61 46 36 40 42 39 15 8 18 20 28 26 30 41 36 38 45 32 58 34 11 15 7 4 5 2 11 10 3 5 7 8 5 4 11 10 8 8 22
62 65 68 66 66 66 64 63 68 61 47 39 47 48 31 7 17 35 14 23 18 14 11 14 43 33 17 5 5 7 6 7 9 18 6 2 3 5 5 5 7 6 18 16 4 1 20
68 68 71 69 73 75 69 69 63 73 54 44 52 53 41 18 34 37 16 12 12 9 10 19 16 16 14 7 5 5 7 3 9 14 11 7 4 5 7 2 2 7 23 11 3 7 21
81 84 86 81 77 73 77 78 68 73 65 52 60 56 56 24 45 53 47 33 21 16 12 19 19 3 4 6 3 4 5 6 8 7 10 6 9 5 4 4 2 20 1 4 6 11 14
99 85 81 79 80 86 83 77 82 79 73 61 64 56 53 53 33 30 43 57 65 63 43 15 8 1 6 2 3 4 6 5 5 8 3 4 1 5 4 5 3 8 6 3 8 11 8
Wind_Direction_500mb
26 15 17 13 1 5 4 358 357 358 358 351 348 345 344 346 344 340 338 335 332 330 331 328 325 321 321 301 272 298 292 292 303 297 305 295 271 258 252 251 242 238 243 251 252 252 252
15 14 13 360 355 354 0 357 356 352 356 348 347 343 339 341 341 338 335 332 329 329 330 325 323 320 307 281 293 299 303 294 290 297 288 275 267 262 275 255 262 251 246 251 250 248 249
12 9 12 359 6 357 356 357 351 345 347 351 347 341 344 348 338 334 333 331 326 329 325 320 328 313 291 266 295 295 301 310 300 260 292 284 279 257 267 266 255 265 263 251 251 245 239
9 0 360 357 358 2 359 349 347 341 343 342 343 336 342 338 338 334 334 329 329 329 317 336 320 296 272 306 315 321 304 291 288 279 276 275 270 270 268 268 276 267 266 251 246 242 240
353 1 1 351 351 350 352 355 352 350 345 335 334 338 340 340 340 337 334 330 334 329 306 336 320 357 281 322 308 285 297 287 298 293 281 261 250 248 259 255 264 243 249 248 249 231 240
355 354 359 348 350 346 346 348 343 341 340 343 333 336 338 337 336 336 333 336 341 326 324 351 20 325 275 311 306 316 331 309 289 290 290 247 233 240 234 236 246 247 240 245 253 251 241
352 354 351 345 350 350 344 344 343 352 342 341 340 336 337 337 338 336 341 346 358 336 331 304 294 285 279 314 308 303 323 310 281 259 272 244 247 238 246 249 250 256 264 267 268 250 246
351 349 350 344 342 344 338 339 345 346 341 337 338 338 337 338 336 340 343 6 359 319 312 320 303 289 298 305 300 300 314 288 272 284 294 268 249 249 260 275 268 261 253 254 260 260 268
341 344 338 337 343 345 342 340 342 340 341 340 339 338 336 338 340 341 347 347 336 331 295 307 321 314 333 308 305 293 312 294 271 283 280 262 253 259 253 263 269 256 250 251 249 255 254
336 343 339 346 340 338 341 339 338 338 343 337 336 337 339 339 346 337 343 338 334 333 294 285 340 326 320 319 301 311 308 291 248 267 273 258 267 258 259 259 254 256 245 251 260 253 251
332 333 338 331 335 337 338 342 334 336 336 336 335 337 340 339 331 339 331 330 330 347 301 343 317 319 317 317 298 308 323 287 279 271 256 262 267 270 258 255 250 245 259 257 252 253 255
329 329 329 326 333 333 337 339 333 335 338 338 336 342 338 335 339 338 333 328 334 274 288 330 314 324 325 332 319 297 321 303 276 283 259 259 267 275 255 261 250 250 243 245 263 247 242
331 322 325 332 331 327 333 339 332 336 338 340 337 342 334 338 339 337 339 335 304 13 343 329 324 326 320 319 326 325 332 321 313 311 333 324 271 244 239 267 239 230 216 233 224 220 249
323 317 322 323 323 326 334 336 330 336 337 337 331 340 336 344 339 335 336 332 356 168 282 313 320 315 311 338 333 332 332 324 332 316 308 339 324 293 79 245 282 217 208 220 228 229 256
318 324 322 321 330 325 333 335 331 335 339 335 335 341 327 335 333 332 341 8 319 303 315 322 323 312 297 331 339 329 327 295 329 16 3 325 297 303 286 265 257 250 213 225 261 269 274
319 318 316 322 307 323 327 334 326 336 340 332 339 337 308 341 340 332 58 321 273 299 296 320 315 340 313 326 328 342 319 272 332 5 355 309 295 304 319 307 357 229 147 167 198 233 243
314 313 313 318 317 321 324 329 328 333 337 331 342 335 306 336 340 20 13 259 288 313 313 281 290 286 281 315 327 318 287 302 295 334 336 305 248 290 307 343 308 353 248 232 258 227 218
313 314 309 315 314 316 322 326 326 333 340 336 347 314 312 332 333 45 307 283 297 304 310 281 274 265 269 301 300 298 261 295 307 330 328 311 293 291 301 298 228 345 308 226 236 224 230
315 309 310 313 312 306 316 318 326 334 336 333 321 272 294 326 321 336 285 278 265 289 311 272 266 254 279 296 308 260 290 283 310 309 324 313 281 319 325 209 294 333 330 305 286 260 234
316 310 309 307 307 308 311 316 321 328 330 330 322 304 282 289 241 278 327 303 294 285 275 250 270 288 297 286 258 277 286 307 313 306 304 300 296 254 284 290 308 334 350 328 233 191 171
311 312 306 306 305 300 301 310 310 320 316 323 262 243 243 282 287 286 302 274 297 310 240 274 259 238 292 292 302 269 284 299 309 303 306 294 282 280 274 289 286 29 6 15 49 26 48
310 309 307 304 301 297 294 301 297 312 304 301 252 225 227 268 279 275 277 243 277 296 265 293 259 281 296 289 281 295 302 305 312 311 18 302 272 305 299 239 51 38 17 23 26 14 40
310 310 305 302 298 294 287 291 281 292 281 283 274 252 229 233 208 231 243 247 278 305 292 267 289 301 297 290 296 290 285 283 275 285 310 254 268 316 282 329 300 352 4 41 44 31 345
313 310 307 304 297 291 288 287 284 272 276 262 268 281 214 239 215 224 264 279 283 284 278 291 293 286 283 308 307 297 271 265 271 299 238 268 280 301 295 310 54 113 35 96 87 35 20
307 305 302 299 297 294 288 286 280 263 264 254 262 264 229 245 238 272 262 270 285 290 282 274 287 294 307 314 311 320 334 307 267 274 21 208 237 296 311 351 116 119 13 333 348 26 11
304 304 301 299 295 293 288 283 269 265 251 250 250 260 247 234 223 247 262 271 285 299 294 256 306 317 315 297 344 331 314 309 322 337 77 98 227 294 321 328 9 13 328 321 299 230 5
302 301 301 299 295 292 290 285 276 264 246 248 245 251 259 243 253 246 220 247 255 254 265 298 331 320 355 356 325 319 298 263 314 319 336 329 345 322 322 325 231 336 318 321 261 355 347
297 296 293 291 289 291 288 285 280 268 250 240 244 244 250 254 258 253 257 245 236 221 256 297 324 224 301 7 323 332 279 314 295 288 318 318 329 340 301 303 317 358 312 33 348 322 329
295 299 295 292 287 285 286 285 279 264 254 235 240 240 251 256 261 246 267 273 271 267 256 236 240 30 255 243 221 270 269 272 307 294 219 278 264 297 270 321 77 36 96 336 284 278 323
Wind_Speed_850mb
36 38 36 36 43 42 43 43 44 44 43 48 52 53 54 53 53 55 57 60 61 62 60 61 64 63 58 28 49 54 32 29 39 40 35 30 33 39 46 43 53 46 59 69 61 54 63
34 36 36 38 35 42 41 45 48 53 50 48 50 52 55 55 55 56 60 62 63 64 65 68 67 46 38 48 45 27 41 49 52 42 31 15 19 28 39 36 39 46 52 57 66 68 64
38 40 40 42 43 43 42 47 41 48 52 52 54 52 61 56 55 59 61 63 66 67 65 69 38 42 39 63 45 47 33 30 26 19 18 20 22 23 21 36 62 64 53 53 45 51 36
40 41 44 45 49 47 50 40 44 49 47 49 52 55 58 62 57 59 63 67 71 68 49 34 60 45 34 49 17 19 11 25 28 39 47 43 32 36 43 38 46 30 29 53 59 54 58
38 39 39 38 44 51 52 50 50 53 49 51 53 55 59 60 62 63 67 72 75 51 34 57 39 9 28 13 11 25 49 42 40 48 40 35 39 50 41 32 30 37 46 52 51 42 40
35 40 35 38 40 47 50 55 54 61 55 52 52 52 55 60 63 67 69 79 56 38 10 42 7 24 17 26 49 47 19 31 32 36 36 25 32 33 30 27 31 43 49 53 59 50 41
39 40 44 46 40 42 47 52 59 50 54 51 58 56 57 60 62 66 74 73 42 9 57 30 65 45 63 38 47 43 34 38 26 18 25 25 20 29 35 42 49 50 53 60 47 52 58
38 41 37 41 46 49 48 53 61 55 55 59 58 58 58 60 63 53 63 26 25 31 54 73 40 24 24 20 23 43 44 21 21 35 32 23 33 50 36 32 39 43 50 57 60 58 47
42 40 45 40 44 47 49 50 58 53 60 54 59 61 58 61 63 55 45 28 38 39 18 42 23 24 11 23 40 90 37 41 33 46 39 40 57 38 39 43 43 40 41 46 57 56 49
43 44 47 45 44 51 52 56 55 58 59 57 59 60 61 62 45 60 22 37 44 37 8 10 20 6 14 66 28 47 43 17 11 28 34 34 48 45 48 49 45 45 53 44 45 45 40
43 43 44 45 47 47 50 50 44 54 63 59 64 59 57 55 62 40 41 40 51 8 10 19 14 25 62 40 66 21 23 25 41 45 24 40 29 33 34 44 36 39 38 40 42 39 41
45 47 46 45 44 49 51 55 50 52 55 60 58 56 59 65 39 35 35 45 22 4 9 21 18 55 56 58 21 36 59 24 38 25 31 48 49 28 45 44 40 31 22 31 26 25 29
42 49 52 44 47 47 51 52 46 48 57 59 54 52 61 35 31 34 41 37 4 5 20 20 50 53 56 42 31 23 35 23 10 15 20 27 22 16 30 26 24 25 20 11 14 16 26
46 47 47 44 42 48 52 52 45 53 53 56 52 56 37 25 34 32 45 4 6 3 11 35 37 48 18 40 24 33 37 20 10 21 20 26 29 2 4 13 14 22 29 17 18 22 28
53 45 53 48 44 49 51 50 47 51 56 50 54 53 16 23 27 28 18 5 6 5 18 30 39 13 9 33 25 27 36 10 12 20 18 18 28 41 39 32 28 5 26 38 19 4 15
52 50 54 54 44 48 51 47 49 48 52 51 56 45 8 21 35 24 3 10 6 15 24 20 14 5 23 29 27 38 16 8 27 16 23 14 28 20 10 23 6 18 2 8 10 9 24
52 49 49 48 49 44 47 43 47 45 52 50 46 21 10 30 27 8 5 8 15 23 29 7 14 16 19 27 28 28 17 34 2 28 27 27 11 24 21 14 23 10 10 12 9 15 23
52 49 50 44 48 47 44 42 46 44 44 44 22 10 21 27 5 4 4 7 23 21 19 13 12 18 19 27 25 20 18 27 47 41 29 13 12 17 40 29 17 27 11 24 10 14 9
48 47 48 47 46 44 44 45 43 39 39 40 18 12 11 18 5 9 8 10 13 11 18 5 9 10 11 16 19 17 27 19 60 17 21 12 6 22 21 2 3 16 31 23 20 13 26
48 49 47 46 44 46 45 45 39 37 30 34 8 5 8 6 3 5 15 13 9 18 16 14 18 26 13 21 22 28 46 25 34 54 57 25 4 12 20 35 32 26 36 24 16 11 17
48 51 49 50 46 46 50 45 36 34 26 29 7 7 8 6 7 13 15 10 21 10 10 11 9 16 20 18 40 26 33 53 33 33 10 7 11 16 22 31 9 32 40 33 28 15 12
50 50 49 50 48 48 51 48 35 34 26 27 11 9 10 14 18 9 8 8 16 14 8 20 19 33 28 32 37 56 50 50 27 9 1 12 10 10 24 13 11 25 33 36 30 26 18
49 50 49 48 48 50 50 54 37 32 21 25 24 29 18 11 5 4 7 9 18 34 24 28 37 38 37 37 46 72 76 69 38 35 11 5 5 8 8 11 12 6 19 23 14 28 13
54 53 54 52 52 52 57 59 48 37 29 36 41 37 15 9 7 12 22 36 37 34 35 64 53 25 26 74 85 40 24 21 16 12 13 4 4 4 11 15 7 6 13 10 16 20 22
62 60 59 60 59 58 61 58 61 46 36 40 42 39 15 8 18 20 28 26 30 41 36 38 45 32 58 34 11 15 7 4 5 2 11 10 3 5 7 8 5 4 11 10 8 8 22
62 65 68 66 66 66 64 63 68 61 47 39 47 48 31 7 17 35 14 23 18 14 11 14 43 33 17 5 5 7 6 7 9 18 6 2 3 5 5 5 7 6 18 16 4 1 20
68 68 71 69 73 75 69 69 63 73 54 44 52 53 41 18 34 37 16 12 12 9 10 19 16 16 14 7 5 5 7 3 9 14 11 7 4 5 7 2 2 7 23 11 3 7 21
81 84 86 81 77 73 77 78 68 73 65 52 60 56 56 24 45 53 47 33 21 16 12 19 19 3 4 6 3 4 5 6 8 7 10 6 9 5 4 4 2 20 1 4 6 11 14
99 85 81 79 80 86 83 77 82 79 73 61 64 56 53 53 33 30 43 57 65 63 43 15 8 1 6 2 3 4 6 5 5 8 3 4 1 5 4 5 3 8 6 3 8 11 8
Wind_Direction_850mb
26 15 17 13 1 5 4 358 357 358 358 351 348 345 344 346 344 340 338 335 332 330 331 328 325 321 321 301 272 298 292 292 303 297 305 295 271 258 252 251 242 238 243 251 252 252 252
15 14 13 360 355 354 0 357 356 352 356 348 347 343 339 341 341 338 335 332 329 329 330 325 323 320 307 281 293 299 303 294 290 297 288 275 267 262 275 255 262 251 246 251 250 248 249
12 9 12 359 6 357 356 357 351 345 347 351 347 341 344 348 338 334 333 331 326 329 325 320 328 313 291 266 295 295 301 310 300 260 292 284 279 257 267 266 255 265 263 251 251 245 239
9 0 360 357 358 2 359 349 347 341 343 342 343 336 342 338 338 334 334 329 329 329 317 336 320 296 272 306 315 321 304 291 288 279 276 275 270 270 268 268 276 267 266 251 246 242 240
353 1 1 351 351 350 352 355 352 350 345 335 334 338 340 340 340 337 334 330 334 329 306 336 320 357 281 322 308 285 297 287 298 293 281 261 250 248 259 255 264 243 249 248 249 231 240
355 354 359 348 350 346 346 348 343 341 340 343 333 336 338 337 336 336 333 336 341 326 324 351 20 325 275 311 306 316 331 309 289 290 290 247 233 240 234 236 246 247 240 245 253 251 241
352 354 351 345 350 350 344 344 343 352 342 341 340 336 337 337 338 336 341 346 358 336 331 304 294 285 279 314 308 303 323 310 281 259 272 244 247 238 246 249 250 256 264 267 268 250 246
351 349 350 344 342 344 338 339 345 346 341 337 338 338 337 338 336 340 343 6 359 319 312 320 303 289 298 305 300 300 314 288 272 284 294 268 249 249 260 275 268 261 253 254 260 260 268
341 344 338 337 343 345 342 340 342 340 341 340 339 338 336 338 340 341 347 347 336 331 295 307 321 314 333 308 305 293 312 294 271 283 280 262 253 259 253 263 269 256 250 251 249 255 254
336 343 339 346 340 338 341 339 338 338 343 337 336 337 339 339 346 337 343 338 334 333 294 285 340 326 320 319 301 311 308 291 248 267 273 258 267 258 259 259 254 256 245 251 260 253 251
332 333 338 331 335 337 338 342 334 336 336 336 335 337 340 339 331 339 331 330 330 347 301 343 317 319 317 317 298 308 323 287 279 271 256 262 267 270 258 255 250 245 259 257 252 253 255
329 329 329 326 333 333 337 339 333 335 338 338 336 342 338 335 339 338 333 328 334 274 288 330 314 324 325 332 319 297 321 303 276 283 259 259 267 275 255 261 250 250 243 245 263 247 242
331 322 325 332 331 327 333 339 332 336 338 340 337 342 334 338 339 337 339 335 304 13 343 329 324 326 320 319 326 325 332 321 313 311 333 324 271 244 239 267 239 230 216 233 224 220 249
323 317 322 323 323 326 334 336 330 336 337 337 331 340 336 344 339 335 336 332 356 168 282 313 320 315 311 338 333 332 332 324 332 316 308 339 324 293 79 245 282 217 208 220 228 229 256
318 324 322 321 330 325 333 335 331 335 339 335 335 341 327 335 333 332 341 8 319 303 315 322 323 312 297 331 339 329 327 295 329 16 3 325 297 303 286 265 257 250 213 225 261 269 274
319 318 316 322 307 323 327 334 326 336 340 332 339 337 308 341 340 332 58 321 273 299 296 320 315 340 313 326 328 342 319 272 332 5 355 309 295 304 319 307 357 229 147 167 198 233 243
314 313 313 318 317 321 324 329 328 333 337 331 342 335 306 336 340 20 13 259 288 313 313 281 290 286 281 315 327 318 287 302 295 334 336 305 248 290 307 343 308 353 248 232 258 227 218
313 314 309 315 314 316 322 326 326 333 340 336 347 314 312 332 333 45 307 283 297 304 310 281 274 265 269 301 300 298 261 295 307 330 328 311 293 291 301 298 228 345 308 226 236 224 230
315 309 310 313 312 306 316 318 326 334 336 333 321 272 294 326 321 336 285 278 265 289 311 272 266 254 279 296 308 260 290 283 310 309 324 313 281 319 325 209 294 333 330 305 286 260 234
316 310 309 307 307 308 311 316 321 328 330 330 322 304 282 289 241 278 327 303 294 285 275 250 270 288 297 286 258 277 286 307 313 306 304 300 296 254 284 290 308 334 350 328 233 191 171
311 312 306 306 305 300 301 310 310 320 316 323 262 243 243 282 287 286 302 274 297 310 240 274 259 238 292 292 302 269 284 299 309 303 306 294 282 280 274 289 286 29 6 15 49 26 48
310 309 307 304 301 297 294 301 297 312 304 301 252 225 227 268 279 275 277 243 277 296 265 293 259 281 296 289 281 295 302 305 312 311 18 302 272 305 299 239 51 38 17 23 26 14 40
310 310 305 302 298 294 287 291 281 292 281 283 274 252 229 233 208 231 243 247 278 305 292 267 289 301 297 290 296 290 285 283 275 285 310 254 268 316 282 329 300 352 4 41 44 31 345
313 310 307 304 297 291 288 287 284 272 276 262 268 281 214 239 215 224 264 279 283 284 278 291 293 286 283 308 307 297 271 265 271 299 238 268 280 301 295 310 54 113 35 96 87 35 20
307 305 302 299 297 294 288 286 280 263 264 254 262 264 229 245 238 272 262 270 285 290 282 274 287 294 307 314 311 320 334 307 267 274 21 208 237 296 311 351 116 119 13 333 348 26 11
304 304 301 299 295 293 288 283 269 265 251 250 250 260 247 234 223 247 262 271 285 299 294 256 306 317 315 297 344 331 314 309 322 337 77 98 227 294 321 328 9 13 328 321 299 230 5
302 301 301 299 295 292 290 285 276 264 246 248 245 251 259 243 253 246 220 247 255 254 265 298 331 320 355 356 325 319 298 263 314 319 336 329 345 322 322 325 231 336 318 321 261 355 347
297 296 293 291 289 291 288 285 280 268 250 240 244 244 250 254 258 253 257 245 236 221 256 297 324 224 301 7 323 332 279 314 295 288 318 318 329 340 301 303 317 358 312 33 348 322 329
295 299 295 292 287 285 286 285 279 264 254 235 240 240 251 256 261 246 267 273 271 267 256 236 240 30 255 243 221 270 269 272 307 294 219 278 264 297 270 321 77 36 96 336 284 278 323